WB5RFA Weather Reports


Display with metric or nautical units.
time (UTC)temp
F
wind
direction
speed
MPH
gust
MPH
rain 1hr
in
rain 24hr
in
rain mn
in
humidity
%
barometer
mb
20260505054911 60 14 1.0 10.0 0.05 0.05 0.03 73 1002.9
20260505054111 60 27 3.0 14.0 0.05 0.05 0.02 71 1003.0
20260505053312 58 55 1.0 7.0 0.05 0.05 0.02 78 1002.5
20260505052512 59 0 0.0 0.0 0.03 0.03 0.02 78 1002.9
20260505051711 60 48 1.0 3.0 0.03 0.03 0.02 75 1002.6
20260505050912 61 47 2.0 5.0 0.02 0.02 0.01 71 1002.3
20260505050113 65 34 3.0 14.0 0.01 0.01 0.00 63 1002.4
20260505041311 71 292 1.0 4.0 0.00 0.00 0.00 67 1001.3
20260505040513 72 212 2.0 6.0 0.00 0.00 0.00 68 1001.4
20260505035712 72 182 4.0 7.0 0.00 0.00 0.00 67 1000.9
20260505034912 72 179 5.0 9.0 0.00 0.00 0.00 67 1000.7
20260505034112 72 181 6.0 9.0 0.00 0.00 0.00 66 1000.9
20260505033312 72 187 5.0 7.0 0.00 0.00 0.00 65 1000.8
20260505032512 73 189 5.0 8.0 0.00 0.00 0.00 64 1000.8
20260505031711 73 189 5.0 10.0 0.00 0.00 0.00 63 1000.6
20260505030912 73 190 4.0 6.0 0.00 0.00 0.00 61 1000.5
20260505030111 74 191 4.0 6.0 0.00 0.00 0.00 60 1000.5
20260505025312 74 194 4.0 6.0 0.00 0.00 0.00 59 1000.4
20260505024512 74 195 3.0 5.0 0.00 0.00 0.00 57 1000.4
20260505023711 75 195 3.0 5.0 0.00 0.00 0.00 56 1000.2
20260505022913 75 195 3.0 4.0 0.00 0.00 0.00 56 1000.1
20260505022112 75 195 3.0 5.0 0.00 0.00 0.00 55 1000.0
20260505021312 75 195 3.0 6.0 0.00 0.00 0.00 54 999.9
20260505020511 75 198 3.0 7.0 0.00 0.00 0.00 53 999.8
20260505015711 75 201 2.0 4.0 0.00 0.00 0.00 53 999.7
20260505014911 75 202 1.0 5.0 0.00 0.00 0.00 53 999.6
20260505014112 76 0 0.0 0.0 0.00 0.00 0.00 52 999.5
20260505013312 76 0 0.0 0.0 0.00 0.00 0.00 51 999.4
20260505012511 76 0 0.0 0.0 0.00 0.00 0.00 51 999.3
20260505011712 77 0 0.0 0.0 0.00 0.00 0.00 50 999.2
20260505010912 77 0 0.0 0.0 0.00 0.00 0.00 49 999.1
20260505010111 78 0 0.0 0.0 0.00 0.00 0.00 49 999.0
20260505005311 78 0 0.0 0.0 0.00 0.00 0.00 48 999.0
20260505004512 78 0 0.0 0.0 0.00 0.00 0.00 48 998.8
20260505003712 79 0 0.0 0.0 0.00 0.00 0.00 47 998.9
20260505002911 79 0 0.0 0.0 0.00 0.00 0.00 47 998.8
20260505002113 79 0 0.0 0.0 0.00 0.00 0.00 46 998.8
20260505001312 79 0 0.0 0.0 0.00 0.00 0.00 47 998.8
20260505000512 79 201 0.0 1.0 0.00 0.00 0.00 47 998.9
20260504235711 79 201 0.0 1.0 0.00 0.00 0.00 47 998.9
20260504234913 80 201 0.0 2.0 0.00 0.00 0.00 47 998.8
20260504234112 80 201 1.0 4.0 0.00 0.00 0.00 47 998.8
20260504233311 80 201 2.0 6.0 0.00 0.00 0.00 46 998.8
20260504232511 80 205 3.0 6.0 0.00 0.00 0.00 44 998.8
20260504231712 80 203 2.0 6.0 0.00 0.00 0.00 43 998.9
20260504230911 81 218 2.0 6.0 0.00 0.00 0.00 42 998.9
20260504230112 81 202 3.0 11.0 0.00 0.00 0.00 43 998.9
20260504225311 81 236 1.0 6.0 0.00 0.00 0.00 43 998.9
20260504224511 81 219 1.0 4.0 0.00 0.00 0.00 42 998.9
20260504223712 80 196 2.0 10.0 0.00 0.00 0.00 44 998.9
20260504222912 80 190 1.0 5.0 0.00 0.00 0.00 44 998.9
20260504222111 80 187 2.0 4.0 0.00 0.00 0.00 47 999.0
20260504221312 80 207 3.0 7.0 0.00 0.00 0.00 45 999.2
20260504220512 80 202 4.0 11.0 0.00 0.00 0.00 46 999.1
20260504215711 80 193 6.0 18.0 0.00 0.00 0.00 46 999.1
20260504214912 80 193 7.0 18.0 0.00 0.00 0.00 46 999.2
20260504214111 80 191 7.0 16.0 0.00 0.00 0.00 47 999.3
20260504213311 80 194 7.0 14.0 0.00 0.00 0.00 47 999.3
20260504212511 80 196 8.0 15.0 0.00 0.00 0.00 48 999.4
20260504211711 80 195 8.0 20.0 0.00 0.00 0.00 46 999.3
20260504210912 81 193 8.0 16.0 0.00 0.00 0.00 45 999.4
20260504210112 82 192 8.0 15.0 0.00 0.00 0.00 45 999.3
20260504205311 82 198 6.0 15.0 0.00 0.00 0.00 43 999.4
20260504204512 82 197 4.0 14.0 0.00 0.00 0.00 42 999.4
20260504203712 82 197 6.0 15.0 0.00 0.00 0.00 42 999.5
20260504202911 82 188 10.0 18.0 0.00 0.00 0.00 40 999.6
20260504202112 82 189 8.0 20.0 0.00 0.00 0.00 40 999.6
20260504201311 82 187 8.0 18.0 0.00 0.00 0.00 40 999.7
20260504200513 82 193 5.0 15.0 0.00 0.00 0.00 40 999.7
20260504195712 82 198 5.0 12.0 0.00 0.00 0.00 42 999.6
20260504194911 81 207 4.0 11.0 0.00 0.00 0.00 43 999.7
20260504194111 81 193 7.0 13.0 0.00 0.00 0.00 43 999.7
20260504193312 80 194 6.0 13.0 0.00 0.00 0.00 42 999.8
20260504192511 80 209 5.0 12.0 0.00 0.00 0.00 44 999.9
20260504191711 80 196 4.0 12.0 0.00 0.00 0.00 43 999.9
20260504190911 80 200 5.0 11.0 0.00 0.00 0.00 48 999.8
20260504190112 79 195 7.0 19.0 0.00 0.00 0.00 46 1000.1
20260504185311 79 195 7.0 13.0 0.00 0.00 0.00 47 1000.1
20260504184512 79 197 4.0 10.0 0.00 0.00 0.00 46 1000.1
20260504183712 79 193 7.0 16.0 0.00 0.00 0.00 48 1000.1
20260504182911 79 208 5.0 16.0 0.00 0.00 0.00 46 1000.2
20260504182112 78 203 4.0 10.0 0.00 0.00 0.00 47 1000.3
20260504181311 78 201 5.0 13.0 0.00 0.00 0.00 49 1000.4
20260504180513 78 193 7.0 13.0 0.00 0.00 0.00 47 1000.4
20260504175712 78 192 5.0 12.0 0.00 0.00 0.00 50 1000.5
20260504174912 77 203 6.0 12.0 0.00 0.00 0.00 47 1000.6
20260504174112 77 198 5.0 15.0 0.00 0.00 0.00 48 1000.6
20260504173312 77 238 3.0 9.0 0.00 0.00 0.00 47 1000.6
20260504172511 77 218 3.0 11.0 0.00 0.00 0.00 49 1000.7
20260504171712 76 212 4.0 14.0 0.00 0.00 0.00 49 1000.7
20260504170911 76 213 3.0 10.0 0.00 0.00 0.00 48 1000.8
20260504170112 75 208 4.0 11.0 0.00 0.00 0.00 48 1000.7
20260504150912 71 207 7.0 17.0 0.00 0.00 0.00 52 1001.3
20260504150111 70 204 6.0 14.0 0.00 0.00 0.00 54 1001.2
20260504141312 67 188 4.0 12.0 0.00 0.00 0.00 59 1001.5
20260504140511 66 188 4.0 11.0 0.00 0.00 0.00 59 1001.5
20260504130112 64 184 4.0 10.0 0.00 0.00 0.00 60 1001.3
20260504110112 63 184 3.0 6.0 0.00 0.00 0.00 58 1001.6
20260504100511 65 183 1.0 5.0 0.00 0.00 0.00 55 1002.2
20260504090113 66 193 3.0 7.0 0.00 0.00 0.00 54 1002.5
20260504081312 65 182 4.0 9.0 0.00 0.00 0.00 55 1002.6
20260504080512 65 179 4.0 7.0 0.00 0.00 0.00 55 1002.8
20260504070112 66 185 3.0 6.0 0.00 0.00 0.00 51 1003.7